カタログに戻る

JILIN-01-04

運用中科学SSO
NORAD 43022·PAYLOAD·🇨🇳 China

打ち上げ Nov 21, 2017 から Taiyuan Satellite Launch Center

Loading…

次のパス (今後24時間)

TLE

最新Source: Space-Track

元期: Sep 14, 2026, 14:47 UTC

1 43022U 17074A   26257.61612523  .00012471  00000-0  27054-3 0  9994
2 43022  97.4917   9.7808 0002832 215.7816 144.3243 15.44538271488064

AllMySatでJILIN-01-04をリアルタイム追跡

Download on the App Store